Flag for Romania Weather past 2 weeks in Timișoara, Romania

Now
45 °F

Clear.


Feels Like: 42 °F
Forecast: 36 / 51 °F
Wind: 5 mph from Southeast

Location: Timisoara Airport

Current Time: Dec 19, 2014 at 11:43:09 AM

Latest Report: Dec 19, 2014 at 11:00 AM


Visibility: 5 mi

Pressure: 30.15 "Hg

Humidity: 87%

Dew point: 41 °F

Location of TimișoaraLocation

Historic Weather in Timișoara — Graph

°F

Timișoara temperature yesterday

Maximum temperature yesterday: 50 °F (at 2:00 PM)
Minimum temperature yesterday: 37 °F (at 12:00 AM)
Average temperature yesterday: 42 °F

Past Weeks' High & Low Weather Summary

 TemperatureHumidityPressure
High52 °F (Dec 13, 2:00 PM)100% (Dec 4, 10:00 PM)30.24 "Hg (Dec 4, 10:00 PM)
Low28 °F (Dec 12, 5:00 AM)58% (Dec 13, 2:30 PM)29.80 "Hg (Dec 17, 4:00 AM)
Average41 °F92%30.08 "Hg
* Reported Dec 4 10:00 AM — Dec 19 10:30 AM, Timișoara, Weather by CustomWeather, © 2014

Note: Actual official high and low records may vary slightly from our data, if they occured in-between our weather recording intervals... More about our weather records

Advertising

Timișoara weather history for previous 24 hours

 ConditionsComfort  
Time TempWeatherWind HumidityBarometerVisibility
10:30 AM
Dec 19
43 °FClear.6 mph93%30.18 "Hg5 mi
10:00 AM41 °FClear.7 mph100%30.15 "Hg5 mi
9:30 AM41 °FClear.6 mph93%30.18 "Hg4 mi
9:00 AM39 °FFog.6 mph100%30.15 "Hg3 mi
8:30 AM39 °FFog.5 mph100%30.15 "Hg2 mi
8:00 AM37 °FFog.5 mph100%30.15 "Hg2 mi
7:30 AM36 °FFog.6 mph100%30.15 "Hg2 mi
7:00 AM36 °FFog.5 mph93%30.15 "Hg1 mi
6:30 AM34 °FFog.6 mph100%30.15 "Hg1 mi
6:00 AM34 °FFog.5 mph100%30.15 "Hg1 mi
5:30 AM37 °FFog.6 mph93%30.15 "Hg1 mi
5:00 AM37 °FFog.5 mph93%30.15 "Hg1 mi
4:30 AM39 °FFog.5 mph100%30.15 "Hg1 mi
4:00 AM41 °FFog.3 mph93%30.15 "Hg2 mi
3:30 AM39 °FFog.5 mph100%30.15 "Hg2 mi
3:00 AM39 °FFog.5 mph100%30.18 "Hg1 mi
2:30 AM39 °FFog.5 mph100%30.15 "Hg1 mi
2:00 AM39 °FFog.3 mph100%30.15 "Hg1 mi
1:30 AM39 °FFog.1 mph100%30.15 "Hg1 mi
1:00 AM39 °FFog.1 mph93%30.15 "Hg1 mi
12:30 AM37 °FFog.3 mph100%30.15 "Hg1 mi
12:00 AM39 °FFog.3 mph100%30.15 "Hg2 mi
11:30 PM
Dec 18
41 °FFog.5 mph93%30.15 "Hg2 mi
11:00 PM41 °FFog.5 mph100%30.15 "Hg2 mi
10:30 PM39 °FFog.1 mph93%30.15 "Hg2 mi
10:00 PM37 °FFog.No wind100%30.15 "Hg2 mi
9:30 PM39 °FFog.5 mph93%30.15 "Hg2 mi
9:00 PM41 °FFog.3 mph93%30.15 "Hg2 mi
8:30 PM41 °FFog.3 mph100%30.12 "Hg3 mi
8:00 PM43 °FPassing clouds.3 mph87%30.12 "Hg5 mi
7:30 PM43 °FClear.3 mph87%30.12 "Hg10 mi
7:00 PM43 °FPassing clouds.3 mph87%30.12 "HgN/A
6:30 PM43 °FPassing clouds.5 mph93%30.12 "HgN/A
6:00 PM45 °FPassing clouds.5 mph87%30.12 "HgN/A
5:30 PM45 °FPassing clouds.3 mph81%30.09 "HgN/A
5:00 PM45 °FClear.3 mph81%30.09 "Hg10 mi
4:30 PM46 °FSunny.2 mph76%30.09 "Hg10 mi
4:00 PM46 °FSunny.7 mph82%30.09 "Hg10 mi
3:30 PM48 °FSunny.5 mph71%30.09 "Hg10 mi
3:00 PM50 °FPassing clouds.3 mph67%30.07 "HgN/A
2:30 PM50 °FPassing clouds.3 mph62%30.07 "HgN/A
2:00 PM50 °FSunny.2 mph67%30.07 "Hg10 mi
1:30 PM48 °FPassing clouds.3 mph76%30.07 "HgN/A
1:00 PM48 °FSunny.2 mph76%30.07 "Hg10 mi
12:30 PM48 °FPassing clouds.3 mph76%30.07 "HgN/A
12:00 PM46 °FPassing clouds.3 mph82%30.07 "HgN/A
11:30 AM46 °FSunny.2 mph82%30.09 "Hg10 mi
11:00 AM45 °FPassing clouds.3 mph87%30.07 "HgN/A
Weather by CustomWeather, © 2014

See weather overviewHow to use our weather pages